Melilla, Spain

9:52 AM CET on January 22, 2018 (GMT +0100)
Melilla

Weather History for GEML - January, 2014

Change the Weather History Date:

Wednesday, January 15, 2014

  Actual Average Record
Temperature  
Mean Temperature 61 °F -  
Max Temperature 64 °F 62 °F 68 °F (2002)
Min Temperature 56 °F 50 °F 42 °F (2017)
Degree Days  
Heating Degree Days 4    
Growing Degree Days 11 (Base 50)    
Moisture  
Dew Point 54 °F    
Average Humidity 78    
Maximum Humidity 88    
Minimum Humidity 64    
Precipitation  
Precipitation 0.03 in 0.07 in - ()
Sea Level Pressure  
Sea Level Pressure 30.08 in    
Wind  
Wind Speed 8 mph ()    
Max Wind Speed 15 mph    
Max Gust Speed -    
Visibility 7.9 miles    
Events Rain    
Averages and records for this station are not official NWS values.
T = Trace of Precipitation, MM = Missing Value Source: Averaged Metar Reports

Daily Weather History Graph

Daily Weather History Graph

Search for Another Location

Airport or City:

Trip Planner

Search our weather history database for the weather conditions in past years. The results will help you decide how hot, cold, wet, or windy it might be!

Date:

Astronomy

Jan. 15, 2014 Rise Set
Actual Time 8:20 AM CET 6:22 PM CET
Civil Twilight 7:52 AM CET 6:50 PM CET
Nautical Twilight 7:21 AM CET 7:21 PM CET
Astronomical Twilight 6:50 AM CET 7:52 PM CET
Moon 6:05 PM CET (1/15) 7:28 AM CET (1/15)
Length of Visible Light 10h 57m
Length of Day
10h 02m
Full, 100% of the Moon is Illuminated
Jan 15
Full
Jan 16
Full
Jan 24
Last Quarter
Jan 30
New
Feb 6
First Quarter

Hourly Weather History & Observations

Time (CET) Temp. Dew Point Humidity Pressure Visibility Wind Dir Wind Speed Gust Speed Precip Events Conditions
6:00 AM 60.8 °F 53.6 °F 77% 30.06 in - West 15.0 mph - N/A   Clear
6:30 AM 60.8 °F 53.6 °F 77% 30.06 in - West 13.8 mph - N/A   Clear
7:00 AM 59 °F 53 °F 73% 30.08 in 19 mi West 13.8 mph - -   Mostly Cloudy
7:00 AM 60.8 °F 53.6 °F 77% 30.06 in 6.2 mi West 13.8 mph - N/A   Mostly Cloudy
7:30 AM 60.8 °F 53.6 °F 77% 30.09 in 6.2 mi West 11.5 mph - N/A   Mostly Cloudy
8:00 AM 60.8 °F 53.6 °F 77% 30.09 in 6.2 mi West 15.0 mph - N/A   Scattered Clouds
8:30 AM 59.0 °F 53.6 °F 82% 30.09 in 6.2 mi WSW 9.2 mph - N/A   Scattered Clouds
9:00 AM 60.8 °F 53.6 °F 77% 30.12 in 6.2 mi WSW 9.2 mph - N/A   Scattered Clouds
9:30 AM 60.8 °F 53.6 °F 77% 30.12 in 6.2 mi WSW 10.4 mph - N/A   Scattered Clouds
10:00 AM 59 °F 54 °F 79% 30.12 in 16 mi West 5.8 mph - - Rain Light Drizzle
10:00 AM 59.0 °F 55.4 °F 88% 30.12 in 6.2 mi West 5.8 mph - N/A   Light Drizzle
10:30 AM 60.8 °F 55.4 °F 82% 30.12 in 6.2 mi West 4.6 mph - N/A   Light Drizzle
11:00 AM 59.0 °F 55.4 °F 88% 30.15 in 3.1 mi Variable 1.2 mph - N/A Rain Light Rain
11:30 AM 59.0 °F 55.4 °F 88% 30.15 in 3.1 mi West 4.6 mph - N/A Rain Light Rain
12:00 PM 60.8 °F 55.4 °F 82% 30.12 in 6.2 mi WSW 3.5 mph - N/A   Scattered Clouds
12:30 PM 62.6 °F 55.4 °F 77% 30.12 in 6.2 mi WSW 5.8 mph - N/A   Scattered Clouds
1:00 PM 63 °F 54 °F 64% 30.11 in 19 mi WSW 5.8 mph - -   Partly Cloudy
1:00 PM 64.4 °F 55.4 °F 73% 30.09 in 6.2 mi WSW 5.8 mph - N/A   Scattered Clouds
1:30 PM 62.6 °F 55.4 °F 77% 30.09 in 6.2 mi WNW 8.1 mph - N/A   Partly Cloudy
2:00 PM 64.4 °F 55.4 °F 73% 30.06 in 6.2 mi West 6.9 mph - N/A   Partly Cloudy
2:30 PM 62.6 °F 53.6 °F 72% 30.06 in 6.2 mi WNW 5.8 mph - N/A   Partly Cloudy
3:00 PM 64.4 °F 55.4 °F 73% 30.06 in 6.2 mi Variable 1.2 mph - N/A   Partly Cloudy
3:30 PM 64.4 °F 55.4 °F 73% 30.06 in 6.2 mi North 1.2 mph - N/A   Partly Cloudy
4:00 PM 64 °F 55 °F 65% 30.05 in 19 mi WNW 5.8 mph - -   Scattered Clouds
4:00 PM 64.4 °F 55.4 °F 73% 30.06 in 6.2 mi WNW 5.8 mph - N/A   Partly Cloudy
4:30 PM 64.4 °F 55.4 °F 73% 30.04 in 6.2 mi WNW 6.9 mph - N/A   Partly Cloudy
5:00 PM 62.6 °F 55.4 °F 77% 30.04 in 6.2 mi West 8.1 mph - N/A   Partly Cloudy
5:30 PM 60.8 °F 55.4 °F 82% 30.04 in 6.2 mi West 8.1 mph - N/A   Partly Cloudy
6:00 PM 59.0 °F 55.4 °F 88% 30.06 in 6.2 mi West 6.9 mph - N/A   Partly Cloudy
6:30 PM 59.0 °F 53.6 °F 82% 30.04 in 6.2 mi West 6.9 mph - N/A   Partly Cloudy
7:00 PM 58 °F 54 °F 80% 30.04 in 12 mi West 6.9 mph - -   Scattered Clouds
7:00 PM 59.0 °F 53.6 °F 82% 30.04 in 6.2 mi West 6.9 mph - N/A   Partly Cloudy
7:30 PM 59.0 °F 53.6 °F 82% 30.04 in 6.2 mi West 8.1 mph - N/A   Partly Cloudy
10:00 PM 56 °F 52 °F 83% 30.05 in 12 mi West 5.8 mph - -